Time,TemperatureF,DewpointF,PressureIn,WindDirection,WindDirectionDegrees,WindSpeedMPH,WindSpeedGustMPH,Humidity,HourlyPrecipIn,Conditions,Clouds,dailyrainin,SoftwareType,DateUTC
2013-10-23 00:01:00,57.7,56.8,29.81,ESE,115,0.0,0.0,97,0.00,,,0.00,meteohub,2013-10-23 04:01:00,
2013-10-23 00:02:00,57.7,56.8,29.81,ESE,115,0.0,0.0,97,0.00,,,0.00,meteohub,2013-10-23 04:02:00,
2013-10-23 00:03:00,57.7,56.8,29.81,ESE,115,0.0,0.0,97,0.00,,,0.00,meteohub,2013-10-23 04:03:00,
2013-10-23 00:06:00,57.7,56.8,29.81,ESE,115,0.0,0.0,97,0.00,,,0.00,meteohub,2013-10-23 04:06:00,
2013-10-23 00:11:00,57.7,56.8,29.81,ESE,115,0.0,0.0,97,0.00,,,0.00,meteohub,2013-10-23 04:11:00,
2013-10-23 00:16:00,57.6,56.7,29.81,ESE,115,0.0,0.0,97,0.00,,,0.00,meteohub,2013-10-23 04:16:00,
2013-10-23 00:21:00,57.6,56.7,29.81,ESE,115,0.0,0.0,97,0.00,,,0.00,meteohub,2013-10-23 04:21:00,
2013-10-23 00:26:00,57.6,56.7,29.81,ESE,115,0.0,0.0,97,0.00,,,0.00,meteohub,2013-10-23 04:26:00,
2013-10-23 00:32:00,57.6,56.7,29.81,ESE,115,0.0,0.0,97,0.00,,,0.00,meteohub,2013-10-23 04:32:00,
2013-10-23 00:37:00,57.6,56.7,29.81,ESE,115,0.0,0.0,97,0.00,,,0.00,meteohub,2013-10-23 04:37:00,
2013-10-23 00:42:00,57.4,56.5,29.80,ESE,115,0.0,0.0,97,0.00,,,0.00,meteohub,2013-10-23 04:42:00,
2013-10-23 00:47:00,57.4,56.5,29.80,ESE,115,0.0,0.0,97,0.00,,,0.00,meteohub,2013-10-23 04:47:00,
2013-10-23 00:52:00,57.4,56.5,29.80,ESE,115,0.0,0.0,97,0.00,,,0.00,meteohub,2013-10-23 04:52:00,
2013-10-23 00:57:00,57.4,56.5,29.80,ESE,115,0.0,0.0,97,0.00,,,0.00,meteohub,2013-10-23 04:57:00,
2013-10-23 01:02:00,57.4,56.8,29.79,ESE,115,0.0,0.0,98,0.00,,,0.00,meteohub,2013-10-23 05:02:00,
2013-10-23 01:07:00,57.4,56.8,29.79,ESE,115,0.0,0.0,98,0.00,,,0.00,meteohub,2013-10-23 05:07:00,
2013-10-23 01:12:00,57.4,56.8,29.79,East,94,0.0,0.0,98,0.00,,,0.00,meteohub,2013-10-23 05:12:00,
2013-10-23 01:17:00,57.4,56.8,29.79,East,94,0.0,0.0,98,0.00,,,0.00,meteohub,2013-10-23 05:17:00,
2013-10-23 01:22:00,57.4,56.8,29.79,ESE,116,0.0,0.0,98,0.00,,,0.00,meteohub,2013-10-23 05:22:00,
2013-10-23 01:27:00,57.6,57.0,29.78,WSW,247,0.0,2.0,98,0.00,,,0.00,meteohub,2013-10-23 05:27:00,
2013-10-23 01:32:00,57.6,57.0,29.78,WSW,252,0.0,2.0,98,0.00,,,0.00,meteohub,2013-10-23 05:32:00,
2013-10-23 01:37:00,57.7,57.2,29.78,WSW,252,0.0,2.0,98,0.00,,,0.00,meteohub,2013-10-23 05:37:00,
2013-10-23 01:42:00,57.7,57.2,29.78,WSW,252,1.0,1.0,98,0.00,,,0.00,meteohub,2013-10-23 05:42:00,
2013-10-23 01:47:00,57.7,57.2,29.78,WSW,252,0.0,1.0,98,0.00,,,0.00,meteohub,2013-10-23 05:47:00,
2013-10-23 01:52:00,57.7,57.2,29.78,WSW,252,0.0,1.0,98,0.00,,,0.00,meteohub,2013-10-23 05:52:00,
2013-10-23 01:57:00,57.7,57.2,29.78,WSW,250,0.0,1.0,98,0.00,,,0.00,meteohub,2013-10-23 05:57:00,
2013-10-23 02:02:00,57.9,57.4,29.78,NW,305,0.0,4.0,98,0.00,,,0.00,meteohub,2013-10-23 06:02:00,
2013-10-23 02:07:00,57.9,57.4,29.77,NW,305,1.0,4.0,98,0.00,,,0.00,meteohub,2013-10-23 06:07:00,
2013-10-23 02:12:00,57.9,57.6,29.78,NW,309,0.0,4.0,99,0.00,,,0.00,meteohub,2013-10-23 06:12:00,
2013-10-23 02:17:00,57.9,57.6,29.77,NW,309,0.0,2.0,99,0.00,,,0.00,meteohub,2013-10-23 06:17:00,
2013-10-23 02:22:00,57.9,57.6,29.77,NW,309,0.0,2.0,99,0.00,,,0.00,meteohub,2013-10-23 06:22:00,
2013-10-23 02:27:00,57.9,57.4,29.77,WNW,300,0.0,2.0,98,0.00,,,0.00,meteohub,2013-10-23 06:27:00,
2013-10-23 02:32:00,57.9,57.4,29.76,NW,304,0.0,2.0,98,0.00,,,0.00,meteohub,2013-10-23 06:32:00,
2013-10-23 02:37:00,57.7,57.2,29.76,NW,304,0.0,2.0,98,0.00,,,0.00,meteohub,2013-10-23 06:37:00,
2013-10-23 02:42:00,57.7,57.2,29.76,NW,304,0.0,2.0,98,0.00,,,0.00,meteohub,2013-10-23 06:42:00,
2013-10-23 02:47:00,57.9,57.4,29.76,West,271,0.0,1.0,98,0.00,,,0.00,meteohub,2013-10-23 06:47:00,
2013-10-23 02:52:00,57.9,57.4,29.75,West,271,0.0,2.0,98,0.00,,,0.00,meteohub,2013-10-23 06:52:00,
2013-10-23 02:57:00,57.9,57.4,29.75,WSW,258,0.0,2.0,98,0.00,,,0.00,meteohub,2013-10-23 06:57:00,
2013-10-23 03:02:00,57.9,57.4,29.75,NW,305,0.0,3.0,98,0.00,,,0.00,meteohub,2013-10-23 07:02:00,
2013-10-23 03:07:00,57.9,57.4,29.75,NW,305,0.0,3.0,98,0.00,,,0.00,meteohub,2013-10-23 07:07:00,
2013-10-23 03:12:00,57.9,57.4,29.75,NW,305,0.0,2.0,98,0.00,,,0.00,meteohub,2013-10-23 07:12:00,
2013-10-23 03:17:00,57.9,57.4,29.75,NW,305,0.0,0.0,98,0.00,,,0.00,meteohub,2013-10-23 07:17:00,
2013-10-23 03:22:00,57.9,57.4,29.75,NW,305,0.0,0.0,98,0.00,,,0.00,meteohub,2013-10-23 07:22:00,
2013-10-23 03:27:00,57.9,57.4,29.75,NW,305,0.0,0.0,98,0.00,,,0.00,meteohub,2013-10-23 07:27:00,
2013-10-23 03:32:00,58.1,57.6,29.74,NW,305,0.0,0.0,98,0.00,,,0.00,meteohub,2013-10-23 07:32:00,
2013-10-23 03:37:00,58.1,57.6,29.74,NW,305,0.0,0.0,98,0.00,,,0.00,meteohub,2013-10-23 07:37:00,
2013-10-23 03:42:00,58.1,57.2,29.74,NW,305,0.0,0.0,97,0.00,,,0.00,meteohub,2013-10-23 07:42:00,
2013-10-23 03:47:00,58.1,57.2,29.73,NW,305,0.0,0.0,97,0.00,,,0.00,meteohub,2013-10-23 07:47:00,
2013-10-23 03:52:00,58.1,57.6,29.73,NW,305,0.0,0.0,98,0.00,,,0.00,meteohub,2013-10-23 07:52:00,
2013-10-23 03:57:00,58.1,57.6,29.73,NW,305,0.0,0.0,98,0.00,,,0.00,meteohub,2013-10-23 07:57:00,
2013-10-23 04:02:00,58.1,57.6,29.73,NW,305,0.0,0.0,98,0.00,,,0.00,meteohub,2013-10-23 08:02:00,
2013-10-23 04:07:00,58.1,57.6,29.73,NW,305,0.0,0.0,98,0.00,,,0.00,meteohub,2013-10-23 08:07:00,
2013-10-23 04:12:00,58.1,57.6,29.73,NW,305,0.0,0.0,98,0.00,,,0.00,meteohub,2013-10-23 08:12:00,
2013-10-23 04:17:00,58.1,57.6,29.73,NW,305,0.0,0.0,98,0.00,,,0.00,meteohub,2013-10-23 08:17:00,
2013-10-23 04:22:00,58.1,57.6,29.73,NW,305,0.0,0.0,98,0.00,,,0.00,meteohub,2013-10-23 08:22:00,
2013-10-23 04:27:00,58.1,57.6,29.72,NW,305,0.0,0.0,98,0.00,,,0.00,meteohub,2013-10-23 08:27:00,
2013-10-23 04:32:00,58.1,57.6,29.72,NW,305,0.0,0.0,98,0.00,,,0.00,meteohub,2013-10-23 08:32:00,
2013-10-23 04:37:00,58.1,57.6,29.72,NW,305,0.0,0.0,98,0.00,,,0.00,meteohub,2013-10-23 08:37:00,
2013-10-23 04:42:00,58.1,57.6,29.72,NW,305,0.0,0.0,98,0.00,,,0.00,meteohub,2013-10-23 08:42:00,
2013-10-23 04:47:00,58.1,57.6,29.72,NW,305,0.0,0.0,98,0.00,,,0.00,meteohub,2013-10-23 08:47:00,
2013-10-23 04:52:00,58.1,57.6,29.71,NW,305,0.0,0.0,98,0.00,,,0.00,meteohub,2013-10-23 08:52:00,
2013-10-23 04:57:00,58.1,57.6,29.71,NW,305,0.0,0.0,98,0.00,,,0.00,meteohub,2013-10-23 08:57:00,
2013-10-23 05:02:00,58.1,57.6,29.71,NW,305,0.0,0.0,98,0.00,,,0.00,meteohub,2013-10-23 09:02:00,
2013-10-23 05:07:00,58.1,57.6,29.71,NW,305,0.0,0.0,98,0.00,,,0.00,meteohub,2013-10-23 09:07:00,
2013-10-23 05:12:00,58.1,57.6,29.71,NW,305,0.0,0.0,98,0.00,,,0.00,meteohub,2013-10-23 09:12:00,
2013-10-23 05:17:00,58.1,57.6,29.71,NW,305,0.0,0.0,98,0.00,,,0.00,meteohub,2013-10-23 09:17:00,
2013-10-23 05:22:00,57.9,57.4,29.71,NW,305,0.0,0.0,98,0.00,,,0.00,meteohub,2013-10-23 09:22:00,
2013-10-23 05:27:00,57.9,57.4,29.70,NW,305,0.0,0.0,98,0.00,,,0.00,meteohub,2013-10-23 09:27:00,
2013-10-23 05:32:00,57.9,57.4,29.70,NW,305,0.0,0.0,98,0.00,,,0.00,meteohub,2013-10-23 09:32:00,
2013-10-23 05:37:00,57.9,57.4,29.70,NW,305,0.0,0.0,98,0.00,,,0.00,meteohub,2013-10-23 09:37:00,
2013-10-23 05:42:00,57.9,57.4,29.70,NW,305,0.0,0.0,98,0.00,,,0.00,meteohub,2013-10-23 09:42:00,
2013-10-23 05:47:00,57.9,57.4,29.70,NW,305,0.0,0.0,98,0.00,,,0.00,meteohub,2013-10-23 09:47:00,
2013-10-23 05:52:00,57.9,57.4,29.70,NW,305,0.0,0.0,98,0.00,,,0.00,meteohub,2013-10-23 09:52:00,
2013-10-23 05:57:00,57.9,57.4,29.70,NW,305,0.0,0.0,98,0.00,,,0.00,meteohub,2013-10-23 09:57:00,
2013-10-23 06:02:00,57.9,57.4,29.70,NW,305,0.0,0.0,98,0.00,,,0.00,meteohub,2013-10-23 10:02:00,
2013-10-23 06:07:00,57.9,57.4,29.70,NW,305,0.0,0.0,98,0.00,,,0.00,meteohub,2013-10-23 10:07:00,
2013-10-23 06:12:00,57.9,57.4,29.70,NW,305,0.0,0.0,98,0.00,,,0.00,meteohub,2013-10-23 10:12:00,
2013-10-23 06:17:00,57.9,57.4,29.70,NW,305,0.0,0.0,98,0.00,,,0.00,meteohub,2013-10-23 10:17:00,
2013-10-23 06:22:00,57.9,57.4,29.70,NW,305,0.0,0.0,98,0.00,,,0.00,meteohub,2013-10-23 10:22:00,
2013-10-23 06:27:00,57.9,57.4,29.70,NW,305,0.0,0.0,98,0.00,,,0.00,meteohub,2013-10-23 10:27:00,
2013-10-23 06:32:00,57.9,57.4,29.70,WSW,254,1.0,2.0,98,0.00,,,0.00,meteohub,2013-10-23 10:32:00,
2013-10-23 06:37:00,57.9,57.4,29.70,WNW,283,0.0,9.0,98,0.00,,,0.00,meteohub,2013-10-23 10:37:00,
2013-10-23 06:42:00,57.7,57.2,29.70,WNW,283,1.0,9.0,98,0.02,,,0.02,meteohub,2013-10-23 10:42:00,
2013-10-23 06:47:00,57.7,57.2,29.70,NW,314,2.0,9.0,98,0.02,,,0.02,meteohub,2013-10-23 10:47:00,
2013-10-23 06:52:00,57.6,57.0,29.70,NW,320,3.0,3.0,98,0.02,,,0.02,meteohub,2013-10-23 10:52:00,
2013-10-23 06:57:00,57.4,56.5,29.70,NW,310,1.0,4.0,97,0.02,,,0.02,meteohub,2013-10-23 10:57:00,
2013-10-23 07:02:00,57.4,56.8,29.70,NW,310,0.0,4.0,98,0.02,,,0.02,meteohub,2013-10-23 11:02:00,
2013-10-23 07:07:00,57.0,56.1,29.70,NW,310,2.0,4.0,97,0.02,,,0.02,meteohub,2013-10-23 11:07:00,
2013-10-23 07:12:00,57.0,56.5,29.70,NW,312,3.0,3.0,98,0.03,,,0.03,meteohub,2013-10-23 11:12:00,
2013-10-23 07:17:00,56.8,55.9,29.70,NW,321,3.0,4.0,97,0.03,,,0.03,meteohub,2013-10-23 11:17:00,
2013-10-23 07:22:00,56.7,55.8,29.70,NW,320,0.0,4.0,97,0.03,,,0.03,meteohub,2013-10-23 11:22:00,
2013-10-23 07:27:00,56.5,55.6,29.71,NW,320,3.0,4.0,97,0.03,,,0.03,meteohub,2013-10-23 11:27:00,
2013-10-23 07:32:00,56.3,55.4,29.71,NW,318,4.0,4.0,97,0.03,,,0.03,meteohub,2013-10-23 11:32:00,
2013-10-23 07:37:00,55.9,55.0,29.71,NW,320,2.0,5.0,97,0.01,,,0.03,meteohub,2013-10-23 11:37:00,
2013-10-23 07:42:00,55.8,54.9,29.71,NW,317,2.0,5.0,97,0.01,,,0.03,meteohub,2013-10-23 11:42:00,
2013-10-23 07:47:00,55.6,54.7,29.71,NW,317,2.0,5.0,97,0.01,,,0.03,meteohub,2013-10-23 11:47:00,
2013-10-23 07:52:00,55.2,54.3,29.71,NW,321,2.0,5.0,97,0.01,,,0.03,meteohub,2013-10-23 11:52:00,
2013-10-23 07:57:00,55.0,54.1,29.71,NW,313,3.0,5.0,97,0.01,,,0.03,meteohub,2013-10-23 11:57:00,
2013-10-23 08:02:00,54.9,54.0,29.72,NW,312,5.0,5.0,97,0.01,,,0.03,meteohub,2013-10-23 12:02:00,
2013-10-23 08:07:00,54.5,53.4,29.72,NW,307,3.0,6.0,96,0.01,,,0.03,meteohub,2013-10-23 12:07:00,
2013-10-23 08:12:00,54.3,53.4,29.72,NW,310,3.0,6.0,97,0.00,,,0.03,meteohub,2013-10-23 12:12:00,
2013-10-23 08:17:00,54.0,53.1,29.72,NW,321,4.0,6.0,97,0.00,,,0.03,meteohub,2013-10-23 12:17:00,
2013-10-23 08:22:00,53.8,52.9,29.72,NW,315,5.0,7.0,97,0.00,,,0.03,meteohub,2013-10-23 12:22:00,
2013-10-23 08:27:00,53.2,52.2,29.72,NW,319,4.0,7.0,96,0.00,,,0.03,meteohub,2013-10-23 12:27:00,
2013-10-23 08:32:00,53.1,51.6,29.72,NW,320,3.0,7.0,95,0.00,,,0.03,meteohub,2013-10-23 12:32:00,
2013-10-23 08:37:00,52.5,50.9,29.73,NW,317,2.0,7.0,94,0.00,,,0.03,meteohub,2013-10-23 12:37:00,
2013-10-23 08:42:00,52.3,50.4,29.73,NW,320,3.0,6.0,93,0.00,,,0.03,meteohub,2013-10-23 12:42:00,
2013-10-23 08:47:00,52.2,50.5,29.73,NW,322,3.0,6.0,94,0.00,,,0.03,meteohub,2013-10-23 12:47:00,
2013-10-23 08:52:00,52.0,50.4,29.73,NW,322,3.0,5.0,94,0.00,,,0.03,meteohub,2013-10-23 12:52:00,
2013-10-23 08:57:00,52.0,50.4,29.73,NW,317,4.0,5.0,94,0.00,,,0.03,meteohub,2013-10-23 12:57:00,
2013-10-23 09:02:00,51.6,50.0,29.73,NNW,328,3.0,5.0,94,0.00,,,0.03,meteohub,2013-10-23 13:02:00,
2013-10-23 09:07:00,51.4,49.5,29.74,NW,322,2.0,5.0,93,0.00,,,0.03,meteohub,2013-10-23 13:07:00,
2013-10-23 09:12:00,51.4,49.3,29.74,NW,322,3.0,5.0,92,0.00,,,0.03,meteohub,2013-10-23 13:12:00,
2013-10-23 09:17:00,51.3,48.7,29.74,NW,318,3.0,4.0,91,0.00,,,0.03,meteohub,2013-10-23 13:17:00,
2013-10-23 09:22:00,51.3,48.7,29.74,NW,315,2.0,5.0,91,0.00,,,0.03,meteohub,2013-10-23 13:22:00,
2013-10-23 09:27:00,51.1,48.6,29.74,NW,317,2.0,5.0,91,0.00,,,0.03,meteohub,2013-10-23 13:27:00,
2013-10-23 09:32:00,51.1,48.9,29.74,NW,325,2.0,5.0,92,0.00,,,0.03,meteohub,2013-10-23 13:32:00,
2013-10-23 09:37:00,51.1,48.6,29.73,NW,325,3.0,4.0,91,0.00,,,0.03,meteohub,2013-10-23 13:37:00,
2013-10-23 09:42:00,51.1,48.6,29.73,NW,325,2.0,4.0,91,0.00,,,0.03,meteohub,2013-10-23 13:42:00,
2013-10-23 09:47:00,51.1,48.6,29.74,NW,325,2.0,3.0,91,0.00,,,0.03,meteohub,2013-10-23 13:47:00,
2013-10-23 09:52:00,51.1,48.6,29.74,NW,320,2.0,4.0,91,0.00,,,0.03,meteohub,2013-10-23 13:52:00,
2013-10-23 09:57:00,51.4,49.5,29.73,NW,320,3.0,4.0,93,0.00,,,0.03,meteohub,2013-10-23 13:57:00,
2013-10-23 10:02:00,51.4,49.3,29.73,NW,315,2.0,4.0,92,0.00,,,0.03,meteohub,2013-10-23 14:02:00,
2013-10-23 10:07:00,51.6,49.1,29.74,NW,319,2.0,4.0,91,0.00,,,0.03,meteohub,2013-10-23 14:07:00,
2013-10-23 10:12:00,52.2,49.8,29.74,NW,319,3.0,5.0,92,0.00,,,0.03,meteohub,2013-10-23 14:12:00,
2013-10-23 10:17:00,52.3,50.0,29.74,WNW,296,3.0,5.0,92,0.00,,,0.03,meteohub,2013-10-23 14:17:00,
2013-10-23 10:22:00,52.5,50.2,29.75,WNW,302,2.0,6.0,92,0.00,,,0.03,meteohub,2013-10-23 14:22:00,
2013-10-23 10:27:00,52.9,50.5,29.75,NW,306,3.0,6.0,92,0.00,,,0.03,meteohub,2013-10-23 14:27:00,
2013-10-23 10:32:00,53.1,50.2,29.75,NW,305,3.0,6.0,90,0.00,,,0.03,meteohub,2013-10-23 14:32:00,
2013-10-23 10:37:00,53.1,50.2,29.75,NNW,336,5.0,6.0,90,0.00,,,0.03,meteohub,2013-10-23 14:37:00,
2013-10-23 10:42:00,53.6,50.7,29.75,NW,310,3.0,6.0,90,0.00,,,0.03,meteohub,2013-10-23 14:42:00,
2013-10-23 10:47:00,53.8,50.5,29.75,NW,308,4.0,6.0,89,0.00,,,0.03,meteohub,2013-10-23 14:47:00,
2013-10-23 10:52:00,54.0,50.7,29.75,NW,306,4.0,6.0,89,0.00,,,0.03,meteohub,2013-10-23 14:52:00,
2013-10-23 10:57:00,54.1,50.7,29.74,NW,321,1.0,6.0,88,0.00,,,0.03,meteohub,2013-10-23 14:57:00,
2013-10-23 11:03:00,54.3,51.1,29.74,WNW,294,2.0,7.0,89,0.00,,,0.03,meteohub,2013-10-23 15:03:00,
2013-10-23 11:08:00,54.5,51.3,29.74,NW,313,3.0,7.0,89,0.00,,,0.03,meteohub,2013-10-23 15:08:00,
2013-10-23 11:13:00,54.7,51.3,29.74,NW,323,4.0,5.0,88,0.00,,,0.03,meteohub,2013-10-23 15:13:00,
2013-10-23 11:18:00,54.7,50.5,29.74,NW,322,6.0,6.0,86,0.00,,,0.03,meteohub,2013-10-23 15:18:00,
2013-10-23 11:24:00,54.7,50.9,29.74,NW,315,3.0,6.0,87,0.00,,,0.03,meteohub,2013-10-23 15:24:00,
2013-10-23 11:29:00,55.0,50.9,29.74,WSW,257,1.0,6.0,86,0.00,,,0.03,meteohub,2013-10-23 15:29:00,
2013-10-23 11:34:00,55.8,51.6,29.74,WNW,298,1.0,6.0,86,0.00,,,0.03,meteohub,2013-10-23 15:34:00,
2013-10-23 11:39:00,55.9,51.3,29.74,WNW,302,2.0,4.0,84,0.00,,,0.03,meteohub,2013-10-23 15:39:00,
2013-10-23 11:44:00,56.1,51.1,29.74,NW,319,2.0,4.0,83,0.00,,,0.03,meteohub,2013-10-23 15:44:00,
2013-10-23 11:50:00,56.5,50.7,29.73,NNW,333,5.0,5.0,81,0.00,,,0.03,meteohub,2013-10-23 15:50:00,
2013-10-23 11:55:00,56.7,50.5,29.74,NW,314,2.0,8.0,80,0.00,,,0.03,meteohub,2013-10-23 15:55:00,
2013-10-23 12:00:00,57.4,51.3,29.73,NW,318,4.0,8.0,80,0.00,,,0.03,meteohub,2013-10-23 16:00:00,
2013-10-23 12:05:00,57.7,51.3,29.73,NNW,329,4.0,8.0,79,0.00,,,0.03,meteohub,2013-10-23 16:05:00,
2013-10-23 12:11:00,57.9,51.1,29.73,NW,318,6.0,7.0,78,0.00,,,0.03,meteohub,2013-10-23 16:11:00,
2013-10-23 12:16:00,58.3,51.1,29.73,WSW,247,1.0,7.0,77,0.00,,,0.03,meteohub,2013-10-23 16:16:00,
2013-10-23 12:21:00,58.6,50.7,29.73,NW,321,0.0,7.0,75,0.00,,,0.03,meteohub,2013-10-23 16:21:00,
2013-10-23 12:26:00,59.4,51.8,29.73,West,270,2.0,7.0,76,0.00,,,0.03,meteohub,2013-10-23 16:26:00,
2013-10-23 12:31:00,59.4,50.7,29.73,WNW,290,2.0,5.0,73,0.00,,,0.03,meteohub,2013-10-23 16:31:00,
2013-10-23 12:37:00,59.2,50.5,29.73,NW,321,5.0,7.0,73,0.00,,,0.03,meteohub,2013-10-23 16:37:00,
2013-10-23 12:42:00,59.2,50.5,29.73,NW,321,5.0,7.0,73,0.00,,,0.03,meteohub,2013-10-23 16:42:00,
2013-10-23 12:47:00,59.5,50.9,29.72,NW,318,2.0,7.0,73,0.00,,,0.03,meteohub,2013-10-23 16:47:00,
2013-10-23 12:52:00,60.1,51.1,29.72,WNW,296,2.0,7.0,72,0.00,,,0.03,meteohub,2013-10-23 16:52:00,
2013-10-23 12:57:00,60.1,50.2,29.72,NW,321,4.0,6.0,70,0.00,,,0.03,meteohub,2013-10-23 16:57:00,
2013-10-23 13:02:00,60.3,50.4,29.72,SW,220,3.0,7.0,70,0.00,,,0.03,meteohub,2013-10-23 17:02:00,
2013-10-23 13:07:00,60.3,50.0,29.72,SW,215,3.0,7.0,69,0.00,,,0.03,meteohub,2013-10-23 17:07:00,
2013-10-23 13:12:00,59.9,48.9,29.72,WNW,292,1.0,7.0,67,0.00,,,0.03,meteohub,2013-10-23 17:12:00,
2013-10-23 13:17:00,59.5,48.9,29.71,West,271,1.0,4.0,68,0.00,,,0.03,meteohub,2013-10-23 17:17:00,
2013-10-23 13:22:00,59.5,48.9,29.71,WSW,248,3.0,4.0,68,0.00,,,0.03,meteohub,2013-10-23 17:22:00,
2013-10-23 13:27:00,59.5,49.8,29.71,WSW,244,1.0,4.0,70,0.00,,,0.03,meteohub,2013-10-23 17:27:00,
2013-10-23 13:32:00,60.6,50.4,29.71,NW,309,4.0,5.0,69,0.00,,,0.03,meteohub,2013-10-23 17:32:00,
2013-10-23 13:37:00,61.3,49.8,29.71,WNW,284,1.0,5.0,66,0.00,,,0.03,meteohub,2013-10-23 17:37:00,
2013-10-23 13:42:00,61.2,48.9,29.71,NW,319,3.0,9.0,64,0.00,,,0.03,meteohub,2013-10-23 17:42:00,
2013-10-23 13:47:00,60.3,49.3,29.71,NW,315,1.0,9.0,67,0.00,,,0.03,meteohub,2013-10-23 17:47:00,
2013-10-23 13:52:00,59.7,48.7,29.71,NW,315,0.0,6.0,67,0.00,,,0.03,meteohub,2013-10-23 17:52:00,
2013-10-23 13:57:00,59.4,49.1,29.70,NW,325,1.0,6.0,69,0.00,,,0.03,meteohub,2013-10-23 17:57:00,
2013-10-23 14:02:00,59.4,49.1,29.70,WNW,284,1.0,4.0,69,0.00,,,0.03,meteohub,2013-10-23 18:02:00,
2013-10-23 14:07:00,59.7,47.5,29.70,NW,316,5.0,5.0,64,0.00,,,0.03,meteohub,2013-10-23 18:07:00,
2013-10-23 14:12:00,60.4,48.6,29.70,NW,314,3.0,6.0,65,0.00,,,0.03,meteohub,2013-10-23 18:12:00,
2013-10-23 14:17:00,61.2,46.8,29.70,NW,320,4.0,6.0,59,0.00,,,0.03,meteohub,2013-10-23 18:17:00,
2013-10-23 14:22:00,61.3,46.4,29.70,WSW,253,2.0,6.0,58,0.00,,,0.03,meteohub,2013-10-23 18:22:00,
2013-10-23 14:27:00,61.2,45.3,29.70,NW,315,3.0,6.0,56,0.00,,,0.03,meteohub,2013-10-23 18:27:00,
2013-10-23 14:32:00,61.3,44.6,29.70,West,264,3.0,6.0,54,0.00,,,0.03,meteohub,2013-10-23 18:32:00,
2013-10-23 14:37:00,61.9,43.5,29.71,NW,319,7.0,7.0,51,0.00,,,0.03,meteohub,2013-10-23 18:37:00,
2013-10-23 14:42:00,62.1,43.2,29.71,West,275,3.0,10.0,50,0.00,,,0.03,meteohub,2013-10-23 18:42:00,
2013-10-23 14:47:00,62.1,42.6,29.71,NNW,327,8.0,10.0,49,0.00,,,0.03,meteohub,2013-10-23 18:47:00,
2013-10-23 14:52:00,62.1,43.2,29.71,NW,321,5.0,10.0,50,0.00,,,0.03,meteohub,2013-10-23 18:52:00,
2013-10-23 14:57:00,62.4,44.1,29.71,WSW,256,1.0,9.0,51,0.00,,,0.03,meteohub,2013-10-23 18:57:00,
2013-10-23 15:02:00,62.8,42.8,29.71,West,277,4.0,8.0,48,0.00,,,0.03,meteohub,2013-10-23 19:02:00,
2013-10-23 15:07:00,62.8,41.7,29.71,NW,321,5.0,8.0,46,0.00,,,0.03,meteohub,2013-10-23 19:07:00,
2013-10-23 15:12:00,62.8,41.7,29.71,NNW,339,4.0,8.0,46,0.00,,,0.03,meteohub,2013-10-23 19:12:00,
2013-10-23 15:17:00,62.8,41.7,29.71,WNW,297,1.0,8.0,46,0.00,,,0.03,meteohub,2013-10-23 19:17:00,
2013-10-23 15:22:00,62.8,41.7,29.71,WNW,301,0.0,6.0,46,0.00,,,0.03,meteohub,2013-10-23 19:22:00,
2013-10-23 15:27:00,63.1,42.1,29.72,NW,317,4.0,11.0,46,0.00,,,0.03,meteohub,2013-10-23 19:27:00,
2013-10-23 15:32:00,63.7,43.7,29.72,WNW,302,3.0,11.0,48,0.00,,,0.03,meteohub,2013-10-23 19:32:00,
2013-10-23 15:37:00,63.3,41.5,29.72,NW,321,4.0,11.0,45,0.00,,,0.03,meteohub,2013-10-23 19:37:00,
2013-10-23 15:42:00,62.8,42.3,29.73,NW,317,3.0,7.0,47,0.00,,,0.03,meteohub,2013-10-23 19:42:00,
2013-10-23 15:47:00,62.2,42.3,29.73,NW,321,3.0,7.0,48,0.00,,,0.03,meteohub,2013-10-23 19:47:00,
2013-10-23 15:52:00,61.5,41.7,29.73,West,268,3.0,7.0,48,0.00,,,0.03,meteohub,2013-10-23 19:52:00,
2013-10-23 15:57:00,61.3,41.0,29.73,WNW,286,3.0,8.0,47,0.00,,,0.03,meteohub,2013-10-23 19:57:00,
2013-10-23 16:02:00,61.5,39.9,29.74,NNW,333,2.0,8.0,45,0.00,,,0.03,meteohub,2013-10-23 20:02:00,
2013-10-23 16:07:00,61.7,40.6,29.74,WNW,303,3.0,8.0,46,0.00,,,0.03,meteohub,2013-10-23 20:07:00,
2013-10-23 16:12:00,61.7,40.1,29.74,NW,317,4.0,7.0,45,0.00,,,0.03,meteohub,2013-10-23 20:12:00,
2013-10-23 16:17:00,62.1,41.5,29.74,NW,319,4.0,7.0,47,0.00,,,0.03,meteohub,2013-10-23 20:17:00,
2013-10-23 16:22:00,62.2,41.2,29.74,SW,229,3.0,6.0,46,0.00,,,0.03,meteohub,2013-10-23 20:22:00,
2013-10-23 16:27:00,62.2,41.2,29.74,NW,314,3.0,9.0,46,0.00,,,0.03,meteohub,2013-10-23 20:27:00,
2013-10-23 16:32:00,62.1,41.0,29.74,NW,305,3.0,9.0,46,0.00,,,0.03,meteohub,2013-10-23 20:32:00,
2013-10-23 16:37:00,62.2,40.6,29.75,NW,325,6.0,11.0,45,0.00,,,0.03,meteohub,2013-10-23 20:37:00,
2013-10-23 16:42:00,62.2,40.6,29.75,NW,313,3.0,11.0,45,0.00,,,0.03,meteohub,2013-10-23 20:42:00,
2013-10-23 16:47:00,62.2,40.1,29.75,NW,322,6.0,11.0,44,0.00,,,0.03,meteohub,2013-10-23 20:47:00,
2013-10-23 16:52:00,62.2,40.1,29.75,NW,323,7.0,12.0,44,0.00,,,0.03,meteohub,2013-10-23 20:52:00,
2013-10-23 16:57:00,62.1,39.4,29.75,WNW,300,4.0,12.0,43,0.00,,,0.03,meteohub,2013-10-23 20:57:00,
2013-10-23 17:02:00,61.9,39.2,29.76,NW,317,5.0,12.0,43,0.00,,,0.03,meteohub,2013-10-23 21:02:00,
2013-10-23 17:07:00,61.7,39.0,29.76,NNW,340,4.0,9.0,43,0.00,,,0.03,meteohub,2013-10-23 21:07:00,
2013-10-23 17:12:00,61.3,39.2,29.76,WNW,294,2.0,8.0,44,0.00,,,0.03,meteohub,2013-10-23 21:12:00,
2013-10-23 17:17:00,61.2,39.7,29.76,WNW,292,3.0,7.0,45,0.00,,,0.03,meteohub,2013-10-23 21:17:00,
2013-10-23 17:22:00,61.0,38.8,29.77,WNW,286,2.0,7.0,44,0.00,,,0.03,meteohub,2013-10-23 21:22:00,
2013-10-23 17:27:00,61.0,38.8,29.77,NW,316,4.0,6.0,44,0.00,,,0.03,meteohub,2013-10-23 21:27:00,
2013-10-23 17:32:00,60.6,40.3,29.77,NW,312,4.0,8.0,47,0.00,,,0.03,meteohub,2013-10-23 21:32:00,
2013-10-23 17:37:00,60.4,40.1,29.78,WNW,290,2.0,8.0,47,0.00,,,0.03,meteohub,2013-10-23 21:37:00,
2013-10-23 17:42:00,60.1,39.7,29.78,NW,310,2.0,8.0,47,0.00,,,0.03,meteohub,2013-10-23 21:42:00,
2013-10-23 17:47:00,59.7,39.4,29.78,NW,324,4.0,5.0,47,0.00,,,0.03,meteohub,2013-10-23 21:47:00,
2013-10-23 17:52:00,59.5,39.9,29.78,NW,313,5.0,7.0,48,0.00,,,0.03,meteohub,2013-10-23 21:52:00,
2013-10-23 17:57:00,59.4,39.2,29.79,NW,304,5.0,7.0,47,0.00,,,0.03,meteohub,2013-10-23 21:57:00,
2013-10-23 18:02:00,59.2,39.6,29.79,NW,317,3.0,10.0,48,0.00,,,0.03,meteohub,2013-10-23 22:02:00,
2013-10-23 18:07:00,58.8,39.2,29.79,NW,312,3.0,10.0,48,0.00,,,0.03,meteohub,2013-10-23 22:07:00,
2013-10-23 18:12:00,58.6,38.5,29.80,West,273,2.0,10.0,47,0.00,,,0.03,meteohub,2013-10-23 22:12:00,
2013-10-23 18:17:00,58.5,38.8,29.80,NW,324,5.0,6.0,48,0.00,,,0.03,meteohub,2013-10-23 22:17:00,
2013-10-23 18:22:00,58.1,38.5,29.81,NW,323,5.0,7.0,48,0.00,,,0.03,meteohub,2013-10-23 22:22:00,
2013-10-23 18:27:00,57.9,37.2,29.81,WNW,299,6.0,8.0,46,0.00,,,0.03,meteohub,2013-10-23 22:27:00,
2013-10-23 18:32:00,57.7,37.0,29.81,NW,317,4.0,8.0,46,0.00,,,0.03,meteohub,2013-10-23 22:32:00,
2013-10-23 18:37:00,57.6,36.3,29.82,NW,323,7.0,8.0,45,0.00,,,0.03,meteohub,2013-10-23 22:37:00,
2013-10-23 18:42:00,57.4,36.7,29.82,NW,319,4.0,9.0,46,0.00,,,0.03,meteohub,2013-10-23 22:42:00,
2013-10-23 18:47:00,57.0,36.0,29.83,NW,309,4.0,9.0,45,0.00,,,0.03,meteohub,2013-10-23 22:47:00,
2013-10-23 18:52:00,56.8,36.3,29.83,NW,323,4.0,9.0,46,0.00,,,0.03,meteohub,2013-10-23 22:52:00,
2013-10-23 18:57:00,56.7,36.1,29.84,NW,314,4.0,9.0,46,0.00,,,0.03,meteohub,2013-10-23 22:57:00,
2013-10-23 19:02:00,56.5,36.0,29.84,NW,314,3.0,8.0,46,0.00,,,0.03,meteohub,2013-10-23 23:02:00,
2013-10-23 19:07:00,56.1,35.6,29.84,NW,317,6.0,6.0,46,0.00,,,0.03,meteohub,2013-10-23 23:07:00,
2013-10-23 19:12:00,55.9,36.0,29.85,WSW,247,3.0,7.0,47,0.00,,,0.03,meteohub,2013-10-23 23:12:00,
2013-10-23 19:17:00,55.8,35.2,29.86,West,275,5.0,9.0,46,0.00,,,0.03,meteohub,2013-10-23 23:17:00,
2013-10-23 19:22:00,55.4,35.4,29.86,NNW,328,7.0,9.0,47,0.00,,,0.03,meteohub,2013-10-23 23:22:00,
2013-10-23 19:27:00,55.0,35.8,29.87,WNW,295,2.0,8.0,48,0.00,,,0.03,meteohub,2013-10-23 23:27:00,
2013-10-23 19:32:00,54.9,35.6,29.87,NW,304,4.0,12.0,48,0.00,,,0.03,meteohub,2013-10-23 23:32:00,
2013-10-23 19:37:00,54.7,36.0,29.87,WNW,300,3.0,12.0,49,0.00,,,0.03,meteohub,2013-10-23 23:37:00,
2013-10-23 19:42:00,54.3,36.1,29.88,WNW,293,4.0,12.0,50,0.00,,,0.03,meteohub,2013-10-23 23:42:00,
2013-10-23 19:47:00,54.0,36.3,29.88,NW,311,3.0,10.0,51,0.00,,,0.03,meteohub,2013-10-23 23:47:00,
2013-10-23 19:52:00,53.8,35.6,29.89,NW,324,6.0,7.0,50,0.00,,,0.03,meteohub,2013-10-23 23:52:00,
2013-10-23 19:57:00,53.4,36.3,29.89,NW,309,3.0,10.0,52,0.00,,,0.03,meteohub,2013-10-23 23:57:00,
2013-10-23 20:02:00,53.2,36.1,29.89,NW,313,3.0,10.0,52,0.00,,,0.03,meteohub,2013-10-24 00:02:00,
2013-10-23 20:07:00,53.1,36.0,29.90,West,263,2.0,10.0,52,0.00,,,0.03,meteohub,2013-10-24 00:07:00,
2013-10-23 20:12:00,52.9,36.1,29.90,NW,314,4.0,6.0,53,0.00,,,0.03,meteohub,2013-10-24 00:12:00,
2013-10-23 20:17:00,52.5,36.0,29.91,WNW,302,4.0,8.0,53,0.00,,,0.03,meteohub,2013-10-24 00:17:00,
2013-10-23 20:22:00,52.3,36.7,29.91,NW,311,3.0,9.0,55,0.00,,,0.03,meteohub,2013-10-24 00:22:00,
2013-10-23 20:27:00,52.2,36.0,29.91,NW,313,6.0,9.0,54,0.00,,,0.03,meteohub,2013-10-24 00:27:00,
2013-10-23 20:32:00,52.0,36.3,29.91,NW,309,3.0,9.0,55,0.00,,,0.03,meteohub,2013-10-24 00:32:00,
2013-10-23 20:37:00,51.6,35.6,29.91,NW,313,5.0,9.0,54,0.00,,,0.03,meteohub,2013-10-24 00:37:00,
2013-10-23 20:42:00,51.6,36.0,29.91,WNW,292,4.0,11.0,55,0.00,,,0.03,meteohub,2013-10-24 00:42:00,
2013-10-23 20:47:00,51.4,35.8,29.92,NW,314,6.0,11.0,55,0.00,,,0.03,meteohub,2013-10-24 00:47:00,
2013-10-23 20:52:00,51.3,35.6,29.92,NW,320,6.0,11.0,55,0.00,,,0.03,meteohub,2013-10-24 00:52:00,
2013-10-23 20:57:00,51.1,35.4,29.92,WNW,303,7.0,9.0,55,0.00,,,0.03,meteohub,2013-10-24 00:57:00,
2013-10-23 21:02:00,51.1,35.4,29.93,NW,306,5.0,9.0,55,0.00,,,0.03,meteohub,2013-10-24 01:02:00,
2013-10-23 21:07:00,50.7,36.0,29.93,NW,315,4.0,9.0,57,0.00,,,0.03,meteohub,2013-10-24 01:07:00,
2013-10-23 21:12:00,50.7,35.6,29.94,NW,311,5.0,9.0,56,0.00,,,0.03,meteohub,2013-10-24 01:12:00,
2013-10-23 21:17:00,50.5,35.4,29.94,NW,317,7.0,9.0,56,0.00,,,0.03,meteohub,2013-10-24 01:17:00,
2013-10-23 21:22:00,50.4,36.1,29.94,NW,317,4.0,9.0,58,0.00,,,0.03,meteohub,2013-10-24 01:22:00,
2013-10-23 21:27:00,50.2,36.3,29.94,NW,309,2.0,9.0,59,0.00,,,0.03,meteohub,2013-10-24 01:27:00,
2013-10-23 21:32:00,49.8,35.6,29.95,NW,314,5.0,10.0,58,0.00,,,0.03,meteohub,2013-10-24 01:32:00,
2013-10-23 21:37:00,49.8,36.1,29.95,NW,308,5.0,11.0,59,0.00,,,0.03,meteohub,2013-10-24 01:37:00,
2013-10-23 21:42:00,49.6,36.0,29.95,NNW,327,7.0,11.0,59,0.00,,,0.03,meteohub,2013-10-24 01:42:00,
2013-10-23 21:47:00,49.5,35.8,29.95,NW,325,7.0,13.0,59,0.00,,,0.03,meteohub,2013-10-24 01:47:00,
2013-10-23 21:52:00,49.3,36.0,29.96,NW,319,5.0,13.0,60,0.00,,,0.03,meteohub,2013-10-24 01:52:00,
2013-10-23 21:57:00,49.1,35.8,29.96,NW,307,4.0,13.0,60,0.00,,,0.03,meteohub,2013-10-24 01:57:00,
2013-10-23 22:02:00,48.9,36.1,29.96,NW,311,3.0,9.0,61,0.00,,,0.03,meteohub,2013-10-24 02:02:00,
2013-10-23 22:07:00,48.7,36.0,29.97,NW,315,5.0,9.0,61,0.00,,,0.03,meteohub,2013-10-24 02:07:00,
2013-10-23 22:12:00,48.6,36.1,29.97,West,281,1.0,8.0,62,0.00,,,0.03,meteohub,2013-10-24 02:12:00,
2013-10-23 22:17:00,48.4,36.3,29.97,NW,309,4.0,8.0,63,0.00,,,0.03,meteohub,2013-10-24 02:17:00,
2013-10-23 22:22:00,48.2,36.1,29.98,NW,313,4.0,8.0,63,0.00,,,0.03,meteohub,2013-10-24 02:22:00,
2013-10-23 22:27:00,48.0,36.0,29.98,NW,317,5.0,8.0,63,0.00,,,0.03,meteohub,2013-10-24 02:27:00,
2013-10-23 22:32:00,47.8,35.8,29.98,NW,319,5.0,10.0,63,0.00,,,0.03,meteohub,2013-10-24 02:32:00,
2013-10-23 22:37:00,47.8,35.8,29.99,NW,323,5.0,10.0,63,0.00,,,0.03,meteohub,2013-10-24 02:37:00,
2013-10-23 22:42:00,47.7,35.6,29.99,NW,320,4.0,9.0,63,0.00,,,0.03,meteohub,2013-10-24 02:42:00,
2013-10-23 22:47:00,47.7,35.6,29.99,NW,312,3.0,9.0,63,0.00,,,0.03,meteohub,2013-10-24 02:47:00,
2013-10-23 22:52:00,47.5,35.6,29.99,NW,304,2.0,8.0,63,0.00,,,0.03,meteohub,2013-10-24 02:52:00,
2013-10-23 22:57:00,47.3,35.4,29.99,NW,304,3.0,7.0,63,0.00,,,0.03,meteohub,2013-10-24 02:57:00,
2013-10-23 23:02:00,47.1,35.2,30.00,NW,317,5.0,8.0,63,0.00,,,0.03,meteohub,2013-10-24 03:02:00,
2013-10-23 23:07:00,47.1,35.2,30.00,WNW,303,3.0,9.0,63,0.00,,,0.03,meteohub,2013-10-24 03:07:00,
2013-10-23 23:12:00,46.9,35.4,30.00,NW,314,4.0,9.0,64,0.00,,,0.03,meteohub,2013-10-24 03:12:00,
2013-10-23 23:17:00,46.8,35.2,30.01,NW,306,3.0,9.0,64,0.00,,,0.03,meteohub,2013-10-24 03:17:00,
2013-10-23 23:22:00,46.8,35.6,30.00,NW,315,3.0,6.0,65,0.00,,,0.03,meteohub,2013-10-24 03:22:00,
2013-10-23 23:27:00,46.6,35.8,30.00,NW,312,3.0,6.0,66,0.00,,,0.03,meteohub,2013-10-24 03:27:00,
2013-10-23 23:32:00,46.4,36.0,30.00,WNW,298,3.0,6.0,67,0.00,,,0.03,meteohub,2013-10-24 03:32:00,
2013-10-23 23:37:00,46.2,36.0,30.00,NW,309,3.0,6.0,67,0.00,,,0.03,meteohub,2013-10-24 03:37:00,
2013-10-23 23:42:00,46.0,36.1,30.00,NW,312,4.0,6.0,68,0.00,,,0.03,meteohub,2013-10-24 03:42:00,
2013-10-23 23:47:00,45.9,36.3,30.00,NW,314,3.0,5.0,69,0.00,,,0.03,meteohub,2013-10-24 03:47:00,
2013-10-23 23:52:00,45.7,36.1,30.01,NW,311,5.0,5.0,69,0.00,,,0.03,meteohub,2013-10-24 03:52:00,
2013-10-23 23:57:00,45.5,36.0,30.01,NW,318,5.0,6.0,69,0.00,,,0.03,meteohub,2013-10-24 03:57:00,